Weather in Razdel'naya

Ukraine / Odesa District     46°51′05″N   30°04′23″E
temp.,
°C
wind,
m/s
gust,
m/s
humid.,
%
clouds,
%
prec.,
mm/h
press.,
hPa
HPBL,
m
28 october, thu
thu2800:00+8nnw22625 0.0 102717
03:00+7n22665 0.0 102715
06:00+6nnw22805 0.0 102720
09:00+8nnw22766 0.0 102886
12:00+13wnw22530 0.0 1028630
15:00+15nw3444100 0.0 10261049
18:00+12nw225625 0.0 102613
21:00+11nw22615 0.0 102615
29 october, fri
fri2900:00+10nw33655 0.0 102725
03:00+9nnw227115 0.0 102619
06:00+10nne2271100 0.0 102620
09:00+12nne24706 0.0 1027143
12:00+16ene33585 0.0 1028863
15:00+17e335066 0.0 10271473
18:00+16e3352100 0.0 102677
21:00+12sse23740 0.0 102750
30 october, sat
sat3000:00+10ene22800 0.0 102825
03:00+9e34745 0.0 102862
06:00+8e34815 0.0 102849
09:00+9e36710 0.0 1029177
12:00+15ese56580 0.0 1029994
15:00+15ese66440 0.0 10281114
18:00+11ese34660 0.0 102851
21:00+9ese22720 0.0 102821
31 october, sun
sun3100:00+8e35870 0.0 102877
03:00+7e35910 0.0 102779
05:00+6e36920 0.0 1027109
08:00+7e48840 0.0 1027213
11:00+13ese56570 0.0 1026831
14:00+15ese55410 0.0 10241045
17:00+10se34640 0.0 102452
20:00+9e11700 0.0 102310
31 october, sun
sun3123:00+7e22810 0.0 102215
02:00+6ene33900 0.0 102131
05:00+5e22900 0.0 102123
08:00+7e23840 0.0 102096
11:00+13se336398 0.0 1019590
14:00+16sse345412 0.0 1017999
17:00+12se46745 0.0 1016102
20:00+9se3792100 0.0 1016120